Weather Roundup
Issued by NWS

Home | Current Version | Previous Version | Text Only | Print | Product List | Glossary On
Versions: 1 2 3 4 5 6 7 8 9 10 11 12 13 14 15 16 17 18 19 20 21 22 23 24 25 26 27 28 29 30 31 32 33 34 35 36 37 38 39 40 41 42 43 44 45 46 47 48 49 50
256
NZUS93 KARX 260410
HRRWXR

CURRENT HOURLY OBSERVATIONS ACROSS
MUCH OF THE UPPER MISSISSIPPI VALLEY
NATIONAL WEATHER SERVICE LA CROSSE WI
1100 PM CDT WED APR 25 2018


...SOUTHEAST MINNESOTA...


CITY           SKY/WX    TMP DP  RH WIND       PRES   REMARKS
ROCHESTER      FAIR      44  32  62 SW8       29.99F
ROCHESTER/MAYO FAIR      49  30  48 CALM      29.99F
WINONA         FAIR      43  32  65 CALM      29.97F
AUSTIN         FAIR      46  34  61 CALM      29.99F
ALBERT LEA     FAIR      39  36  87 CALM      30.00F
DODGE CENTER   FAIR      45  34  65 SW3       29.99F
PRESTON        FAIR      47  27  45 CALM      30.00F
OWATONNA       FAIR      43  36  75 S6        29.99F
FARIBAULT      NOT AVBL
$$

...ELSEWHERE IN MINNESOTA...


CITY           SKY/WX    TMP DP  RH WIND       PRES   REMARKS
MINNEAPOLIS    CLOUDY    52  33  48 SW3       29.97F
INTNL FALLS    FAIR      47  27  45 S6        29.80F
DULUTH         FAIR      47  18  31 SW7       29.90F
RED WING       FAIR      39  27  60 CALM      29.97F
REDWOOD FALLS  CLOUDY    44  36  73 S7        29.95F
MANKATO        FAIR      49  33  54 S6        29.98F
WORTHINGTON    CLOUDY    45  34  65 S7        29.98F
FAIRMONT       CLOUDY    44  38  79 S6        29.99F
$$

...SOUTHWEST WISCONSIN...


CITY           SKY/WX    TMP DP  RH WIND       PRES   REMARKS
LA CROSSE      FAIR      46  31  55 CALM      29.98F
PRAIRIE DU CHI FAIR      44  29  56 CALM      29.98F
BOSCOBEL       FAIR      42  31  64 CALM      29.98F
LONE ROCK      FAIR      41  33  73 CALM      29.98F
PLATTEVILLE    FAIR      48  31  50 N3        29.99F
FORT MC COY    FAIR      34  28  79 CALM      29.99F
CAMP DOUGLAS   FAIR      36  28  72 CALM      29.97F
MAUSTON-NEW LI FAIR      38  31  77 CALM      29.97F
VIROQUA        FAIR      48  28  45 CALM      29.98F
WIS DELLS      FAIR      40  25  54 CALM      29.98F
$$

...ELSEWHERE IN WISCONSIN...


CITY           SKY/WX    TMP DP  RH WIND       PRES   REMARKS
MILWAUKEE      FAIR      38  28  67 CALM      30.01F
MADISON        FAIR      45  32  60 SE6       29.99F
GREEN BAY      FAIR      40  31  70 S6        29.99F
EAU CLAIRE     FAIR      40  25  55 CALM      29.96F
BLACK RVR FLS  FAIR      30  25  80 CALM      29.97F
MEDFORD        FAIR      37  29  73 CALM      29.96F
WAUSAU         FAIR      40  26  57 CALM      29.95F
WIS RAPIDS     FAIR      35  27  72 CALM      29.98F
MARSHFIELD     FAIR      41  29  62 SW3       29.96F
RICE LAKE      FAIR      38  30  72 CALM      29.98F
$$

...NORTHEAST IOWA...


CITY           SKY/WX    TMP DP  RH WIND       PRES   REMARKS
WATERLOO       FAIR      42  32  67 CALM      29.99F
DUBUQUE        FAIR      51  26  37 N3        29.99F
DECORAH        CLOUDY    46  28  49 CALM      29.98F
MASON CITY     CLEAR     41  34  76 W5        30.01F
CHARLES CITY   FAIR      45  34  65 W5        30.00F
OELWEIN        FAIR      46  34  61 N5        29.99F
$$

...ELSEWHERE IN IOWA...


CITY           SKY/WX    TMP DP  RH WIND       PRES   REMARKS
DES MOINES     PTCLDY    54  31  41 NE6       30.00F
IOWA CITY      FAIR      47  31  53 CALM      30.00F
FORT DODGE     CLEAR     44  35  70 E5        30.00F
MARSHALLTOWN   CLEAR     44  32  62 N6        29.99F
CEDAR RAPIDS   FAIR      49  28  44 N6        29.98F
$$

...NORTHERN ILLINOIS...


CITY           SKY/WX    TMP DP  RH WIND       PRES   REMARKS
CHICAGO-OHARE  FAIR      40  28  62 CALM      30.01F
CHICAGO-MIDWAY FAIR      43  29  57 N3        30.01F
MOLINE         FAIR      45  34  65 CALM      29.98F
ROCKFORD       FAIR      41  30  65 SE5       30.02F
PEORIA         FAIR      51  34  52 E13       29.99S
$$

NOTE: "FAIR" INDICATES FEW OR NO CLOUDS BELOW 12,000 FEET WITH NO
SIGNIFICANT WEATHER AND/OR OBSTRUCTIONS TO VISIBILITY. WIND
SPEEDS ARE IN MILES-PER-HOUR.




USA.gov is the U.S. government's official web portal to all federal, state and local government web resources and services.